Location: Unspecified
(20.0000°S, 0.0000°E)
Time: 07:13:45
(UTC+00:00)

LilacSat-2 - Visible Passes

Search period start: 20 July 2019 00:00
Search period end: 30 July 2019 00:00
Orbit: 512 x 536 km, 97.5° (Epoch: 20 July)

Date Brightness Start Highest point End Pass type
(mag) Time Alt. Az. Time Alt. Az. Time Alt. Az.
20 Jul ? 04:58:47 10° NNE 05:02:23 41° ESE 05:06:03 10° S visible
20 Jul ? 18:16:58 10° SSW 18:20:12 26° WSW 18:23:25 10° NW visible
21 Jul ? 04:47:04 10° NE 04:50:21 27° ESE 04:53:40 10° SSE visible
21 Jul ? 18:04:33 10° S 18:08:10 38° WSW 18:11:44 10° NW visible
22 Jul ? 04:35:35 10° ENE 04:38:18 19° ESE 04:41:04 10° SSE visible
22 Jul ? 06:09:54 10° NW 06:12:20 16° W 06:14:47 10° WSW visible
23 Jul ? 04:24:33 10° E 04:26:18 13° ESE 04:28:02 10° SE visible
23 Jul ? 05:57:04 10° NNW 06:00:12 24° W 06:03:22 10° SW visible
24 Jul ? 05:44:32 10° NNW 05:48:04 36° W 05:51:41 10° SSW visible
25 Jul ? 05:32:11 10° N 05:35:57 56° W 05:39:48 10° SSW visible
26 Jul ? 05:20:02 10° N 05:23:52 88° WNW 05:27:46 10° SSW visible
26 Jul ? 18:39:51 10° SW 18:41:36 13° WSW 18:43:19 10° W visible
27 Jul ? 05:08:00 10° NNE 05:11:47 59° ESE 05:15:37 10° S visible
27 Jul ? 18:26:50 10° SSW 18:29:34 19° WSW 18:32:17 10° WNW visible
28 Jul ? 04:56:08 10° NE 04:59:43 38° ESE 05:03:21 10° S visible
28 Jul ? 18:14:14 10° SSW 18:17:32 27° WSW 18:20:47 10° NW visible
29 Jul ? 04:44:27 10° NE 04:47:39 25° ESE 04:50:55 10° SSE visible
29 Jul ? 18:01:50 10° S 18:05:28 41° WSW 18:09:03 10° NNW visible
